User: anonymous   Login
Location: Ellingshausen
(50.5460°N, 10.4723°E)
Time: 23:22:52
(UTC+00:00)
Language:

SeaSat 1 - Orbit

View from above orbital plane
View from above orbital plane
View from above satellite
View from above satellite

Ground track
Ground track

The orbit is defined by the following mean orbital elements,

1 10967U          26067.38936073 +.00000000 +00000-0 +14028-3 0 00004
2 10967 108.0112 122.7712 0002248 286.4380  73.6519 14.46159285    03
Epoch (UTC): 08 March 2026 09:20:40
Eccentricity: 0.0002248
inclination: 108.0112°
perigee height: 737 km
apogee height: 740 km
right ascension of ascending node: 122.7712°
argument of perigee: 286.4380°
revolutions per day: 14.46159285
mean anomaly at epoch: 73.6519°

The dashed part of the orbit path shows where the satellite is in the earth's shadow,  

DLR